Regional Weather Roundup
Issued by NWS

Home | Current Version | Previous Version | Graphics & Text | Print | Product List | Glossary On
Versions: 1 2 3 4 5 6 7 8 9 10 11 12 13 14 15 16 17 18 19 20 21 22 23 24 25 26 27 28 29 30 31 32 33 34 35 36 37 38 39 40 41 42 43 44 45 46 47 48 49 50
675
ASUS45 KCYS 290510
RWRWY

WYOMING REGIONAL WEATHER ROUNDUP
NATIONAL WEATHER SERVICE CHEYENNE WY
1100 PM MDT FRI APR 28 2017

NOTE:  "FAIR" INDICATES FEW OR NO CLOUDS BELOW 12,000 FEET
WITH NO SIGNIFICANT WEATHER AND/OR OBSTRUCTIONS TO VISIBILITY.

WYZ001-290600-
YELLOWSTONE NATIONAL PARK

CITY           SKY/WX    TMP DP  RH WIND       PRES   REMARKS
LK YELLOWSTONE   N/A     26  18  71 CALM      30.13R
W YELLOWSTONE  NOT AVBL

$$
WYZ002>013-054>058-071-098>099-290600-
NORTHERN WYOMING

CITY           SKY/WX    TMP DP  RH WIND       PRES   REMARKS
JACKSON        FAIR      34  25  69 NE10      30.09R WCI  26
CODY           CLOUDY    35  29  78 CALM      30.18R
GREYBULL       CLOUDY    39  31  72 W9        30.16R WCI  33
WORLAND        CLOUDY    36  33  89 S3        30.17S
SHERIDAN       FAIR      33  31  92 CALM      30.19S
BUFFALO        FAIR      32  20  61 W7        30.19S WCI  26
GILLETTE       FAIR      30  29  96 W10       30.18S WCI  21
HULETT         FAIR      34  30  86 S6        30.19S WCI  29
NEWCASTLE      FAIR      36  28  75 CALM      30.19S

$$
WYZ014>020-022>026-101>103-290600-
CENTRAL WYOMING

CITY           SKY/WX    TMP DP  RH WIND       PRES   REMARKS
BIG PINEY      FAIR      27  23  85 SW8       30.07R WCI  19
PINEDALE       FAIR      32  14  47 CALM      30.06R
DUBOIS         SNOW      25  23  93 SE14      30.11R VSB 1/2 WCI  13
LANDER         FLURRIES  29  28  96 W3        30.16R
RIVERTON       CLOUDY    30  27  88 E9        30.17R WCI  22
CASPER         CLOUDY    30  27  88 E9        30.16S WCI  22
DOUGLAS        CLOUDY    29  27  92 CALM      30.18R

$$
WYZ021-027>030-104>119-290600-
SOUTHERN WYOMING

CITY           SKY/WX    TMP DP  RH WIND       PRES   REMARKS
EVANSTON       CLOUDY    27  23  85 E13       30.04R WCI  16
FORT BRIDGER   CLOUDY    28  28  96 E10       30.08R WCI  19
ROCK SPRINGS   CLOUDY    29  22  75 NE20G28   30.04R WCI  16
DIXON            N/A     34  20  58 E10       29.95S WCI  26
RAWLINS        MOCLDY    26  19  74 E25G35    30.05R WCI  11
SARATOGA       FAIR      27  19  74 CALM      30.00S
LARAMIE        CLOUDY    24  19  81 E20       30.03S WCI  10
CHEYENNE       CLOUDY    27  25  92 NE13G25   30.08S WCI  16
TORRINGTON     CLOUDY    32  31  96 NW6       30.12F WCI  26
PINE BLUFFS    CLOUDY    30  30 100 NE14G20   30.11R WCI  20

$$




USA.gov is the U.S. government's official web portal to all federal, state and local government web resources and services.